Terug naar catalogus

STARLINK-11161

ActiefCommunicatieVLEO
NORAD 60124·PAYLOAD·🇺🇸 United States

Gelanceerd Jun 24, 2024 vanaf Vandenberg Space Force Base

Loading…

Volgende Passages (komende 24 uur)

TLE

VersSource: CelesTrak SupGP

Epoch: Sep 14, 2026, 20:59 UTC

1 60124C 24118M   26257.87479167  .00027830  00000+0  22912-3 0  2575
2 60124  53.1564   9.0148 0000995  85.9700 213.2650 15.69708249    14

Volg STARLINK-11161 in realtime met AllMySat

Download on the App Store